Location: Latimer
(34.1330°N, 82.5927°W)
Time: 23:00:34
(UTC+00:00)

N. Korean satellite - Pass Details

Date: 16 August 2022
Orbit: 428 x 468 km, 97.3° (Epoch: 24 September)

Event Time Altitude Azimuth Distance (km) Brightness Sun altitude
Rises 10:08:23 0° 23° (NNE) 2,533 11.0 -9.4°
Reaches altitude 10° 10:10:38 10° 35° (NE) 1,648 10.2 -9.0°
Maximum altitude 10:13:47 29° 97° (E) 885 8.6 -8.4°
Drops below altitude 10° 10:16:53 10° 160° (SSE) 1,625 9.2 -7.8°
Sets 10:19:05 0° 171° (S) 2,490 10.0 -7.4°
